Tracking 20040 objects as of 19-Nov-2019
Live streaming from Space Station
objects crossing your sky now

GALAXY 25 (TELSTAR 5)

Track GALAXY 25 (TELSTAR 5) now!
GALAXY 25 (TELSTAR 5) is classified as:


NORAD ID: 24812
Int'l Code: 1997-026A
Perigee: 35,780.2 km
Apogee: 35,807.9 km
Inclination: 1.4 °
Period: 1,436.1 minutes
Semi major axis: 42165 km
RCS: 43.2964 m2 (large)
Launch date: May 24, 1997
Source: United States (US)
Launch site: TYURATAM MISSILE AND SPACE COMPLEX (TTMTR)

24 C-band, 28 Ku-band; U.S., southern Canada, Mexico, Caribbean.
aabbcc
Your satellite tracking list
Your tracking list is empty




NASA's NSSDC Master Catalog

Two Line Element Set (TLE):
1 24812U 97026A   19323.15440826  .00000158  00000-0  00000+0 0  9992
2 24812   1.4288  92.0854 0003282 143.7013 270.5732  1.00270745 82286
Source of the keplerian elements: AFSPC